Time,TemperatureF,DewpointF,PressureIn,WindDirection,WindDirectionDegrees,WindSpeedMPH,WindSpeedGustMPH,Humidity,HourlyPrecipIn,Conditions,Clouds,dailyrainin,SoftwareType,DateUTC
2013-09-27 00:12:00,59.0,51.0,30.12,North,355,9.0,15.0,75,0.00,,,0.00,weatherlink.com 1.10,2013-09-27 04:12:00,
2013-09-27 00:27:00,59.1,51.0,30.12,North,5,7.0,14.0,75,0.00,,,0.00,weatherlink.com 1.10,2013-09-27 04:27:00,
2013-09-27 00:42:00,59.1,51.0,30.12,North,349,12.0,16.0,75,0.00,,,0.00,weatherlink.com 1.10,2013-09-27 04:42:00,
2013-09-27 00:57:00,59.3,51.0,30.12,NNW,344,7.0,23.0,75,0.00,,,0.00,weatherlink.com 1.10,2013-09-27 04:57:00,
2013-09-27 01:12:00,59.2,51.0,30.13,North,355,8.0,16.0,75,0.00,,,0.00,weatherlink.com 1.10,2013-09-27 05:12:00,
2013-09-27 01:27:00,59.1,52.0,30.13,North,360,7.0,14.0,76,0.00,,,0.00,weatherlink.com 1.10,2013-09-27 05:27:00,
2013-09-27 01:42:00,59.0,51.0,30.13,North,9,5.0,16.0,76,0.00,,,0.00,weatherlink.com 1.10,2013-09-27 05:42:00,
2013-09-27 01:57:00,58.8,52.0,30.13,North,355,5.0,13.0,77,0.00,,,0.00,weatherlink.com 1.10,2013-09-27 05:57:00,
2013-09-27 02:12:00,58.4,52.0,30.13,North,11,8.0,11.0,78,0.00,,,0.00,weatherlink.com 1.10,2013-09-27 06:12:00,
2013-09-27 02:27:00,58.1,51.0,30.14,NE,36,5.0,11.0,78,0.00,,,0.00,weatherlink.com 1.10,2013-09-27 06:27:00,
2013-09-27 02:42:00,58.2,52.0,30.14,ENE,71,8.0,8.0,79,0.00,,,0.00,weatherlink.com 1.10,2013-09-27 06:42:00,
2013-09-27 02:58:00,58.3,51.0,30.14,NNE,13,2.0,13.0,78,0.00,,,0.00,weatherlink.com 1.10,2013-09-27 06:58:00,
2013-09-27 03:13:00,58.4,52.0,30.14,NE,39,6.0,16.0,78,0.00,,,0.00,weatherlink.com 1.10,2013-09-27 07:13:00,
2013-09-27 03:28:00,58.3,52.0,30.14,NNE,28,8.0,13.0,79,0.00,,,0.00,weatherlink.com 1.10,2013-09-27 07:28:00,
2013-09-27 03:43:00,58.1,52.0,30.15,North,360,6.0,13.0,79,0.00,,,0.00,weatherlink.com 1.10,2013-09-27 07:43:00,
2013-09-27 03:58:00,57.8,52.0,30.15,NE,43,1.0,10.0,80,0.00,,,0.00,weatherlink.com 1.10,2013-09-27 07:58:00,
2013-09-27 04:13:00,57.5,52.0,30.15,NNE,22,8.0,10.0,81,0.00,,,0.00,weatherlink.com 1.10,2013-09-27 08:13:00,
2013-09-27 04:28:00,57.5,52.0,30.15,NNE,24,4.0,13.0,81,0.00,,,0.00,weatherlink.com 1.10,2013-09-27 08:28:00,
2013-09-27 04:43:00,57.4,52.0,30.15,NNE,23,3.0,7.0,81,0.00,,,0.00,weatherlink.com 1.10,2013-09-27 08:43:00,
2013-09-27 04:59:00,58.1,52.0,30.16,NNE,27,5.0,10.0,79,0.00,,,0.00,weatherlink.com 1.10,2013-09-27 08:59:00,
2013-09-27 05:13:00,58.1,51.0,30.16,North,5,6.0,9.0,78,0.00,,,0.00,weatherlink.com 1.10,2013-09-27 09:13:00,
2013-09-27 05:28:00,58.0,51.0,30.17,North,355,4.0,10.0,78,0.00,,,0.00,weatherlink.com 1.10,2013-09-27 09:28:00,
2013-09-27 05:43:00,58.1,51.0,30.17,North,360,6.0,10.0,77,0.00,,,0.00,weatherlink.com 1.10,2013-09-27 09:43:00,
2013-09-27 05:58:00,58.4,51.0,30.17,NE,42,6.0,10.0,77,0.00,,,0.00,weatherlink.com 1.10,2013-09-27 09:58:00,
2013-09-27 06:13:00,58.5,51.0,30.18,NE,34,8.0,15.0,77,0.00,,,0.00,weatherlink.com 1.10,2013-09-27 10:13:00,
2013-09-27 06:28:00,58.0,51.0,30.18,North,355,6.0,11.0,78,0.00,,,0.00,weatherlink.com 1.10,2013-09-27 10:28:00,
2013-09-27 06:43:00,58.1,51.0,30.19,North,350,8.0,13.0,77,0.00,,,0.00,weatherlink.com 1.10,2013-09-27 10:43:00,
2013-09-27 07:00:00,58.9,51.0,30.19,NE,54,6.0,13.0,76,0.00,,,0.00,weatherlink.com 1.10,2013-09-27 11:00:00,
2013-09-27 07:13:00,59.3,51.0,30.19,NNE,26,6.0,11.0,73,0.00,,,0.00,weatherlink.com 1.10,2013-09-27 11:13:00,
2013-09-27 07:28:00,59.7,51.0,30.19,North,5,8.0,13.0,72,0.00,,,0.00,weatherlink.com 1.10,2013-09-27 11:28:00,
2013-09-27 07:43:00,60.0,51.0,30.20,ENE,57,0.0,13.0,72,0.00,,,0.00,weatherlink.com 1.10,2013-09-27 11:43:00,
2013-09-27 07:58:00,60.6,51.0,30.20,North,9,5.0,11.0,70,0.00,,,0.00,weatherlink.com 1.10,2013-09-27 11:58:00,
2013-09-27 08:13:00,60.8,51.0,30.20,ENE,60,7.0,14.0,70,0.00,,,0.00,weatherlink.com 1.10,2013-09-27 12:13:00,
2013-09-27 08:28:00,59.9,52.0,30.21,North,355,4.0,9.0,74,0.00,,,0.00,weatherlink.com 1.10,2013-09-27 12:28:00,
2013-09-27 08:44:00,59.9,52.0,30.21,North,351,3.0,14.0,74,0.00,,,0.00,weatherlink.com 1.10,2013-09-27 12:44:00,
2013-09-27 08:59:00,60.1,52.0,30.21,North,5,5.0,14.0,75,0.00,,,0.00,weatherlink.com 1.10,2013-09-27 12:59:00,
2013-09-27 09:14:00,60.5,53.0,30.21,North,355,7.0,11.0,75,0.00,,,0.00,weatherlink.com 1.10,2013-09-27 13:14:00,
2013-09-27 09:29:00,60.9,53.0,30.21,NE,34,1.0,11.0,74,0.00,,,0.00,weatherlink.com 1.10,2013-09-27 13:29:00,
2013-09-27 09:44:00,61.0,53.0,30.22,NNE,30,7.0,14.0,74,0.00,,,0.00,weatherlink.com 1.10,2013-09-27 13:44:00,
2013-09-27 09:59:00,61.1,53.0,30.22,NE,38,5.0,13.0,74,0.00,,,0.00,weatherlink.com 1.10,2013-09-27 13:59:00,
2013-09-27 10:14:00,61.5,53.0,30.22,North,360,6.0,14.0,73,0.00,,,0.00,weatherlink.com 1.10,2013-09-27 14:14:00,
2013-09-27 10:29:00,62.1,52.0,30.21,NNE,17,10.0,15.0,70,0.00,,,0.00,weatherlink.com 1.10,2013-09-27 14:29:00,
2013-09-27 10:44:00,62.5,52.0,30.21,NNW,348,7.0,15.0,69,0.00,,,0.00,weatherlink.com 1.10,2013-09-27 14:44:00,
2013-09-27 10:59:00,63.2,52.0,30.21,ENE,65,12.0,17.0,66,0.00,,,0.00,weatherlink.com 1.10,2013-09-27 14:59:00,
2013-09-27 11:14:00,63.7,52.0,30.21,North,360,2.0,12.0,66,0.00,,,0.00,weatherlink.com 1.10,2013-09-27 15:14:00,
2013-09-27 11:29:00,63.8,52.0,30.21,North,355,12.0,22.0,66,0.00,,,0.00,weatherlink.com 1.10,2013-09-27 15:29:00,
2013-09-27 11:44:00,64.4,53.0,30.21,NNE,24,4.0,15.0,66,0.00,,,0.00,weatherlink.com 1.10,2013-09-27 15:44:00,
2013-09-27 11:59:00,62.6,54.0,30.21,ESE,113,7.0,13.0,73,0.00,,,0.00,weatherlink.com 1.10,2013-09-27 15:59:00,
2013-09-27 12:14:00,63.1,53.0,30.21,NNW,331,4.0,14.0,69,0.00,,,0.00,weatherlink.com 1.10,2013-09-27 16:14:00,
2013-09-27 12:29:00,62.3,54.0,30.21,East,100,1.0,10.0,75,0.00,,,0.00,weatherlink.com 1.10,2013-09-27 16:29:00,
2013-09-27 12:44:00,63.0,54.0,30.20,East,98,3.0,7.0,72,0.00,,,0.00,weatherlink.com 1.10,2013-09-27 16:44:00,
2013-09-27 12:59:00,63.8,53.0,30.20,East,90,10.0,11.0,69,0.00,,,0.00,weatherlink.com 1.10,2013-09-27 16:59:00,
2013-09-27 13:14:00,64.1,53.0,30.20,East,86,11.0,15.0,67,0.00,,,0.00,weatherlink.com 1.10,2013-09-27 17:14:00,
2013-09-27 13:29:00,65.5,52.0,30.19,East,87,13.0,15.0,62,0.00,,,0.00,weatherlink.com 1.10,2013-09-27 17:29:00,
2013-09-27 13:44:00,65.4,52.0,30.19,East,88,13.0,15.0,62,0.00,,,0.00,weatherlink.com 1.10,2013-09-27 17:44:00,
2013-09-27 13:59:00,65.6,52.0,30.19,East,81,9.0,9.0,62,0.00,,,0.00,weatherlink.com 1.10,2013-09-27 17:59:00,
2013-09-27 14:14:00,66.5,52.0,30.19,ENE,69,7.0,14.0,59,0.00,,,0.00,weatherlink.com 1.10,2013-09-27 18:14:00,
2013-09-27 14:29:00,65.8,53.0,30.18,East,88,8.0,11.0,63,0.00,,,0.00,weatherlink.com 1.10,2013-09-27 18:29:00,
2013-09-27 14:44:00,66.7,52.0,30.18,ENE,68,7.0,8.0,60,0.00,,,0.00,weatherlink.com 1.10,2013-09-27 18:44:00,
2013-09-27 14:59:00,66.9,53.0,30.18,East,86,5.0,10.0,61,0.00,,,0.00,weatherlink.com 1.10,2013-09-27 18:59:00,
2013-09-27 15:14:00,66.5,52.0,30.18,East,81,8.0,13.0,61,0.00,,,0.00,weatherlink.com 1.10,2013-09-27 19:14:00,
2013-09-27 15:29:00,66.4,53.0,30.18,ENE,78,8.0,10.0,62,0.00,,,0.00,weatherlink.com 1.10,2013-09-27 19:29:00,
2013-09-27 15:44:00,67.0,52.0,30.18,ENE,78,5.0,12.0,60,0.00,,,0.00,weatherlink.com 1.10,2013-09-27 19:44:00,
2013-09-27 15:59:00,66.9,52.0,30.18,ENE,78,4.0,9.0,60,0.00,,,0.00,weatherlink.com 1.10,2013-09-27 19:59:00,
2013-09-27 16:14:00,67.0,52.0,30.18,ENE,78,4.0,8.0,60,0.00,,,0.00,weatherlink.com 1.10,2013-09-27 20:14:00,
2013-09-27 16:29:00,67.3,53.0,30.18,ENE,78,1.0,7.0,60,0.00,,,0.00,weatherlink.com 1.10,2013-09-27 20:29:00,
2013-09-27 16:44:00,67.3,53.0,30.18,ENE,78,4.0,5.0,60,0.00,,,0.00,weatherlink.com 1.10,2013-09-27 20:44:00,
2013-09-27 16:59:00,67.8,53.0,30.18,ENE,78,1.0,7.0,59,0.00,,,0.00,weatherlink.com 1.10,2013-09-27 20:59:00,
2013-09-27 17:14:00,67.7,53.0,30.18,ENE,78,0.0,2.0,60,0.00,,,0.00,weatherlink.com 1.10,2013-09-27 21:14:00,
2013-09-27 17:29:00,67.6,54.0,30.18,ENE,78,0.0,1.0,61,0.00,,,0.00,weatherlink.com 1.10,2013-09-27 21:29:00,
2013-09-27 17:44:00,68.1,54.0,30.18,ENE,78,0.0,0.0,60,0.00,,,0.00,weatherlink.com 1.10,2013-09-27 21:44:00,
2013-09-27 17:59:00,67.3,55.0,30.18,ENE,78,0.0,0.0,66,0.00,,,0.00,weatherlink.com 1.10,2013-09-27 21:59:00,
2013-09-27 18:14:00,65.2,56.0,30.18,ENE,78,0.0,0.0,71,0.00,,,0.00,weatherlink.com 1.10,2013-09-27 22:14:00,
2013-09-27 18:29:00,62.7,55.0,30.18,ENE,78,0.0,2.0,77,0.00,,,0.00,weatherlink.com 1.10,2013-09-27 22:29:00,
2013-09-27 18:44:00,60.9,55.0,30.19,ENE,78,0.0,3.0,82,0.00,,,0.00,weatherlink.com 1.10,2013-09-27 22:44:00,
2013-09-27 18:59:00,59.9,55.0,30.19,ENE,78,3.0,5.0,85,0.00,,,0.00,weatherlink.com 1.10,2013-09-27 22:59:00,
2013-09-27 19:14:00,59.5,55.0,30.20,ENE,78,0.0,7.0,86,0.00,,,0.00,weatherlink.com 1.10,2013-09-27 23:14:00,
2013-09-27 19:29:00,59.1,55.0,30.20,ENE,78,0.0,5.0,86,0.00,,,0.00,weatherlink.com 1.10,2013-09-27 23:29:00,
2013-09-27 19:44:00,58.9,55.0,30.20,ENE,77,2.0,8.0,86,0.00,,,0.00,weatherlink.com 1.10,2013-09-27 23:44:00,
2013-09-27 19:59:00,57.9,54.0,30.21,ENE,77,0.0,3.0,88,0.00,,,0.00,weatherlink.com 1.10,2013-09-27 23:59:00,
2013-09-27 20:14:00,57.7,54.0,30.21,NE,39,4.0,7.0,88,0.00,,,0.00,weatherlink.com 1.10,2013-09-28 00:14:00,
2013-09-27 20:29:00,57.6,54.0,30.22,NW,316,5.0,7.0,89,0.00,,,0.00,weatherlink.com 1.10,2013-09-28 00:29:00,
2013-09-27 20:44:00,57.5,54.0,30.22,West,279,3.0,8.0,88,0.00,,,0.00,weatherlink.com 1.10,2013-09-28 00:44:00,
2013-09-27 21:00:00,56.9,54.0,30.22,West,272,4.0,8.0,89,0.00,,,0.00,weatherlink.com 1.10,2013-09-28 01:00:00,
2013-09-27 21:15:00,56.7,54.0,30.22,West,274,3.0,9.0,90,0.00,,,0.00,weatherlink.com 1.10,2013-09-28 01:15:00,
2013-09-27 21:30:00,56.5,54.0,30.22,West,272,6.0,9.0,91,0.00,,,0.00,weatherlink.com 1.10,2013-09-28 01:30:00,
2013-09-27 21:45:00,57.1,54.0,30.23,West,271,4.0,10.0,89,0.00,,,0.00,weatherlink.com 1.10,2013-09-28 01:45:00,
2013-09-27 22:00:00,56.3,54.0,30.23,West,269,5.0,7.0,90,0.00,,,0.00,weatherlink.com 1.10,2013-09-28 02:00:00,
2013-09-27 22:15:00,56.6,54.0,30.23,West,267,6.0,10.0,89,0.00,,,0.00,weatherlink.com 1.10,2013-09-28 02:15:00,
2013-09-27 22:30:00,55.9,53.0,30.23,West,269,4.0,10.0,90,0.00,,,0.00,weatherlink.com 1.10,2013-09-28 02:30:00,
2013-09-27 22:45:00,55.5,53.0,30.23,West,268,4.0,9.0,91,0.00,,,0.00,weatherlink.com 1.10,2013-09-28 02:45:00,
2013-09-27 23:00:00,55.2,53.0,30.24,West,269,2.0,8.0,91,0.00,,,0.00,weatherlink.com 1.10,2013-09-28 03:00:00,
2013-09-27 23:15:00,55.0,53.0,30.24,West,267,4.0,7.0,92,0.00,,,0.00,weatherlink.com 1.10,2013-09-28 03:15:00,
2013-09-27 23:30:00,54.9,53.0,30.24,West,267,3.0,7.0,92,0.00,,,0.00,weatherlink.com 1.10,2013-09-28 03:30:00,
2013-09-27 23:45:00,54.7,53.0,30.24,West,268,4.0,9.0,92,0.00,,,0.00,weatherlink.com 1.10,2013-09-28 03:45:00,